TimeEDT,TemperatureF,Dew PointF,Humidity,Sea Level PressureIn,VisibilityMPH,Wind Direction,Wind SpeedMPH,Gust SpeedMPH,PrecipitationIn,Events,Conditions,WindDirDegrees,DateUTC
12:53 AM,48.9,45.0,86,30.07,10.0,West,3.5,-,0.02,,Overcast,260,2012-10-08 04:53:00
1:53 AM,48.0,44.1,86,30.08,10.0,North,-9999.0,-,N/A,,Mostly Cloudy,0,2012-10-08 05:53:00
2:49 AM,44.6,42.8,93,30.07,1.5,Calm,Calm,-,N/A,,Partly Cloudy,0,2012-10-08 06:49:00
2:53 AM,44.1,41.0,89,30.07,0.8,Calm,Calm,-,N/A,,Mist,0,2012-10-08 06:53:00
3:06 AM,42.8,39.2,87,30.08,0.5,Calm,Calm,-,N/A,Fog,Fog,0,2012-10-08 07:06:00
3:13 AM,42.8,39.2,87,30.08,0.5,Calm,Calm,-,N/A,Fog,Fog,0,2012-10-08 07:13:00
3:53 AM,39.9,37.0,89,30.09,0.2,Calm,Calm,-,N/A,Fog,Fog,0,2012-10-08 07:53:00
4:25 AM,41.0,37.4,87,30.10,1.2,Calm,Calm,-,N/A,,Partly Cloudy,0,2012-10-08 08:25:00
4:33 AM,39.2,37.4,93,30.11,0.8,Calm,Calm,-,N/A,,Mist,0,2012-10-08 08:33:00
4:53 AM,39.9,37.0,89,30.11,0.5,Calm,Calm,-,N/A,Fog,Fog,0,2012-10-08 08:53:00
5:53 AM,37.9,35.1,89,30.14,0.2,Calm,Calm,-,N/A,Fog,Fog,0,2012-10-08 09:53:00
6:53 AM,37.0,35.1,93,30.15,0.2,Calm,Calm,-,N/A,Fog,Fog,0,2012-10-08 10:53:00
7:53 AM,39.9,37.9,93,30.18,10.0,Calm,Calm,-,0.01,,Clear,0,2012-10-08 11:53:00
8:53 AM,48.9,45.0,86,30.20,10.0,Calm,Calm,-,N/A,,Clear,0,2012-10-08 12:53:00
9:53 AM,54.0,43.0,66,30.22,10.0,NNW,4.6,-,N/A,,Clear,330,2012-10-08 13:53:00
10:41 AM,57.2,44.6,63,30.22,10.0,Variable,5.8,-,N/A,,Mostly Cloudy,0,2012-10-08 14:41:00
10:53 AM,55.9,43.0,62,30.23,10.0,WNW,3.5,-,N/A,,Mostly Cloudy,300,2012-10-08 14:53:00
11:53 AM,57.0,42.1,57,30.23,10.0,Calm,Calm,-,N/A,,Mostly Cloudy,0,2012-10-08 15:53:00
12:00 PM,55.4,41.0,58,30.23,10.0,NW,4.6,-,N/A,,Mostly Cloudy,320,2012-10-08 16:00:00
12:53 PM,57.0,39.9,53,30.23,10.0,West,3.5,-,N/A,,Mostly Cloudy,260,2012-10-08 16:53:00
1:53 PM,57.9,41.0,53,30.23,10.0,Calm,Calm,-,N/A,,Overcast,0,2012-10-08 17:53:00
2:53 PM,57.9,41.0,53,30.25,10.0,SSE,3.5,-,N/A,,Overcast,150,2012-10-08 18:53:00
3:53 PM,57.9,41.0,53,30.24,10.0,ESE,3.5,-,N/A,,Clear,110,2012-10-08 19:53:00
4:53 PM,57.0,42.1,57,30.25,10.0,Calm,Calm,-,N/A,,Mostly Cloudy,0,2012-10-08 20:53:00
5:53 PM,54.0,45.0,72,30.27,10.0,SE,3.5,-,N/A,,Partly Cloudy,140,2012-10-08 21:53:00
6:53 PM,52.0,45.0,77,30.29,10.0,North,3.5,-,N/A,,Clear,10,2012-10-08 22:53:00
7:53 PM,51.1,45.0,80,30.30,10.0,Calm,Calm,-,N/A,,Partly Cloudy,0,2012-10-08 23:53:00
8:53 PM,51.1,45.0,80,30.30,10.0,Calm,Calm,-,N/A,,Partly Cloudy,0,2012-10-09 00:53:00
9:53 PM,50.0,45.0,83,30.30,10.0,Calm,Calm,-,N/A,,Overcast,0,2012-10-09 01:53:00
10:53 PM,50.0,46.0,86,30.30,10.0,Calm,Calm,-,N/A,,Overcast,0,2012-10-09 02:53:00
11:53 PM,50.0,46.0,86,30.29,10.0,Calm,Calm,-,N/A,,Overcast,0,2012-10-09 03:53:00